Location: Ar Ranvel
(48.3000°N, 4.8833°W)
Time: 13:21:26
(UTC+00:00)

ERS-1 Rocket - Pass Details

Date: 16 June 2021
Orbit: 752 x 758 km, 98.4° (Epoch: 30 July)

Event Time Altitude Azimuth Distance (km) Brightness Sun altitude
Exits shadow 21:24:38 10° 147° (SSE) 2,286 4.8 -8.2°
Reaches altitude 10° 21:24:38 10° 147° (SSE) 2,284 4.8 -8.2°
Maximum altitude 21:29:33 56° 70° (ENE) 902 3.3 -8.8°
Drops below altitude 10° 21:34:29 10° 353° (N) 2,301 6.5 -9.3°
Sets 21:36:50 0° 350° (N) 3,230 7.5 -9.5°
